Preview of NWS' New Version of Forecast
This preview is not operational and should not be used for support decisions.

Regional Weather Roundup (RWR)

Issued by National Weather Service (NWS)

                            
000
ASUS43 KDTX 241010
RWRMI 
MICHIGAN HOURLY REGIONAL WEATHER ROUNDUP
NATIONAL WEATHER SERVICE DETROIT/PONTIAC MI
600 AM EDT WED APR 24 2019

NOTE: "FAIR" INDICATES FEW OR NO CLOUDS BELOW 12,000 FEET WITH NO
SIGNIFICANT WEATHER AND/OR OBSTRUCTION TO VISIBILITY.

MIZ047>049-052>055-059>063-066>070-074>076-081>083-241100-
SOUTHEAST LOWER MICHIGAN
  
CITY           SKY/WX    TMP DP  RH WIND       PRES   REMARKS
ADRIAN         FAIR      38  32  79 NE7       30.01F WCI  33          
ALMA           FAIR      34  32  92 NW3       30.03S                  
ANN ARBOR      FAIR      38  33  82 N5        30.00S WCI  34          
BAD AXE        FAIR      34  32  91 CALM      29.98R                  
CARO           FAIR      33  31  92 CALM      30.00R                  
DETROIT CITY   FAIR      40  33  76 NW3       30.00S                  
DETROIT        FAIR      39  32  76 NW6       30.01S WCI  35          
FLINT          FAIR      36  32  85 NW6       30.02R WCI  31          
GROSSE ILE     FAIR      39  34  83 NW3       30.00S                  
HILLSDALE      FAIR      38  32  80 N3        29.99F                  
HOWELL         FAIR      37  32  83 N3        30.00S                  

CITY           SKY/WX    TMP DP  RH WIND       PRES   REMARKS
JACKSON        FAIR      36  32  85 SW3       30.01S                  
LAMBERTVILLE   FAIR      40  36  86 CALM      30.01R                  
LANSING        FAIR      37  32  82 N5        30.01F WCI  33          
LAPEER         CLOUDY    39  35  87 W3        30.00S                  
MASON          FAIR      38  33  81 CALM      30.01S                  
MONROE         FAIR      38  38  98 NW3       30.01R                  
MT. CLEMENS    CLOUDY    41  38  89 W6        29.99R                  
PONTIAC        FAIR      37  34  89 NW5       29.98S WCI  33          
PORT HOPE        N/A     39  32  76 W8        29.96S WCI  33          
TRI CITIES     FAIR      36  33  89 NW6       30.02S WCI  31          
MIDLAND        FAIR      32  30  95 CALM      30.02S                  
TROY           FAIR      40  32  74 NW5       30.02S                  
SAGINAW HB     FAIR      36  32  87 NW5       30.01S WCI  32          
$$
MIZ043>046-050>051-056>058-064>065-071>073-077>080-241100-
SOUTHWEST LOWER MICHIGAN
  
CITY           SKY/WX    TMP DP  RH WIND       PRES   REMARKS
BATTLE CREEK   FAIR      35  33  92 W3        30.02S                  
BENTON HARBOR  FAIR      34  31  88 NE3       30.02F                  
BIG RAPIDS     FAIR      30  29  96 CALM      30.01F                  
COLDWATER      FAIR      34  34 100 CALM      30.01S                  
FREMONT        FAIR      31  31  99 CALM      30.03S                  
HOLLAND        FAIR      34  32  92 CALM      30.03S                  
GRAND RAPIDS   FAIR      39  31  72 CALM      30.02F                  
IONIA          FAIR      36  30  80 N9        30.02S WCI  29          
KALAMAZOO      FAIR      34  32  92 N3        30.03S                  
LUDINGTON      FAIR      28  27  97 CALM      30.02F FOG              
MARSHALL       FAIR      35  35 100 CALM      30.02S                  
MOUNT PLEASANT FAIR      35  33  94 CALM      30.01F                  
MUSKEGON       FAIR      34  29  82 NE3       30.03F                  
SOUTH HAVEN    FOG       32  31  95 CALM      30.03S VSB 3/4          
$$
MIZ016>042-241100-
NORTHERN LOWER MICHIGAN
  
CITY           SKY/WX    TMP DP  RH WIND       PRES   REMARKS
ALPENA         FAIR      34  31  88 W7        29.99S WCI  28          
BEAVER ISLAND  FAIR      26  26  99 CALM      30.01F                  
BELLAIRE       FAIR      29  28  95 CALM      30.03R                  
CADILLAC       FAIR      27  26  95 CALM      29.99S FOG              
CHARLEVOIX     FAIR      29  28  96 CALM      30.04S                  
FRANKFORT      FAIR      32  28  85 CALM      30.03S                  
GAYLORD        FAIR      29  29 100 NW5       29.98S WCI  24          
GRAYLING         N/A     29  29 100 CALM      29.99R                  
HARBOR SPRINGS FAIR      29  28  96 CALM      30.01S                  
HOUGHTON LAKE  FAIR      32  28  85 NW5       30.00S WCI  27          
MANISTEE       FOG       27  26  96 CALM      30.02F VSB 1/2          
OSCODA         FAIR      31  28  91 W3        29.98S                  
PELLSTON       FAIR      27  25  92 CALM      30.01F                  
ROGERS CITY    FAIR      33  30  88 W5        30.01R WCI  29          
TRAVERSE CITY  FAIR      30  28  92 CALM      30.01S                  
$$
MIZ007>008-015-241100-
EASTERN UPPER MICHIGAN
  
CITY           SKY/WX    TMP DP  RH WIND       PRES   REMARKS
KINROSS        FAIR      27  26  96 CALM      30.00S                  
MACKINAC ISLAN FAIR      32  32 100 W6        30.00F WCI  27          
NEWBERRY       FAIR      29  27  92 CALM      29.99S                  
S. S. MARIE    FAIR      33  29  85 W6        29.99S WCI  28          
MUNISING         N/A     28  22  78 S9        29.99F WCI  19          
$$
MIZ004>006-011>014-085-241100-
CENTRAL UPPER MICHIGAN
  
CITY           SKY/WX    TMP DP  RH WIND       PRES   REMARKS
MANISTIQUE     FAIR      26  21  80 CALM      30.00F                  
ESCANABA       FAIR      30  28  92 W6        30.02F WCI  24          
MENOMINEE      FAIR      30  29  96 CALM      30.02F                  
SAWYER-GWINN   FAIR      29  25  84 CALM      29.97F                  
$$
MIZ001>003-009>011-084-241100-
WESTERN UPPER MICHIGAN
  
CITY           SKY/WX    TMP DP  RH WIND       PRES   REMARKS
IRON MOUNTAIN  FAIR      31  27  85 CALM      29.97F                  
HOUGHTON       FAIR      35  21  56 SE5       29.92F WCI  31          
COPPER HARBOR    N/A     38  24  57 SW5       29.95S WCI  34          
IRONWOOD       FAIR      47  28  47 S9        29.90F                  
$$

ABBREVIATIONS USED IN REMARKS
   TC - TEMPERATURE IN CELSIUS
  WCI - WIND CHILL INDEX
   HX - HEAT INDEX
  VSB - VISIBILITY